Location: Arbon
(43.0005°N, 0.7472°E)
Time: 10:27:32
(UTC+00:00)

Vanguard 2 Rocket - Pass Details

Date: 01 December 2020
Orbit: 554 x 3325 km, 32.9° (Epoch: 21 January)

Event Time Altitude Azimuth Distance (km) Brightness Sun altitude
Rises 06:26:28 0° 226° (SW) 6,664 11.1 -7.8°
Reaches altitude 10° 06:30:50 10° 221° (SW) 5,895 10.9 -7.0°
Maximum altitude 06:48:46 47° 155° (SSE) 4,009 10.6 -4.1°
Drops below altitude 10° 07:05:47 10° 90° (E) 5,644 12.1 -1.3°
Sets 07:09:49 0° 85° (E) 6,376 12.3 -0.7°
